Weather History for West Plains, MO

Change the Weather History Date:

Monday, July 15, 2013

  Actual Average Record
Temperature  
Mean Temperature 75 °F 78 °F  
Max Temperature 85 °F 90 °F 104 °F (1980)
Min Temperature 65 °F 67 °F 53 °F (1967)
Degree Days  
Heating Degree Days 0 0  
Month to date heating degree days 0 0  
Since 1 June heating degree days 9 5  
Since 1 July heating degree days 0 0  
Cooling Degree Days 10 13  
Month to date cooling degree days 136 191  
Year to date cooling degree days 396 579  
Since 1 June cooling degree days 284 457  
Growing Degree Days 25 (Base 50)    
Moisture  
Dew Point 69 °F    
Average Humidity 78    
Maximum Humidity 100    
Minimum Humidity 55    
Precipitation  
Precipitation 0.13 in 0.12 in 2.02 in (1972)
Month to date precipitation 0.13 1.82  
Year to date precipitation 25.62 25.11  
Sea Level Pressure  
Sea Level Pressure 30.17 in    
Wind  
Wind Speed 5 mph (East)    
Max Wind Speed 14 mph    
Max Gust Speed 18 mph    
Visibility 9 miles    
Events Rain , Thunderstorm    
T = Trace of Precipitation, MM = Missing Value Source: NWS Daily Summary

Daily Weather History Graph

Daily Weather History Graph

Search for Another Location

Airport:

Trip Planner

Search our weather history database for the weather conditions in past years. The results will help you decide how hot, cold, wet, or windy it might be!

Date:

Astronomy

Jul. 15, 2013 Rise Set
Actual Time 6:00 AM CDT 8:26 PM CDT
Civil Twilight 5:30 AM CDT 8:56 PM CDT
Nautical Twilight 4:53 AM CDT 9:33 PM CDT
Astronomical Twilight 4:12 AM CDT 10:13 PM CDT
Moon 1:07 PM CDT (7/15) No Moon Set
Length of Visible Light 15h 26m
Length of Day
14h 26m
Waxing Crescent, 45% of the Moon is Illuminated
Jul 15
Waxing Crescent
Jul 15
First Quarter
Jul 22
Full
Jul 29
Last Quarter
Aug 6
New

Hourly Weather History & Observations

Time (CDT) Temp. Heat Index Dew Point Humidity Pressure Visibility Wind Dir Wind Speed Gust Speed Precip Events Conditions
12:53 AM 66.0 °F - 63.0 °F 90% 30.11 in 10.0 mi ENE 3.5 mph - N/A   Clear
1:53 AM 66.0 °F - 64.0 °F 93% 30.10 in 10.0 mi ENE 5.8 mph - N/A   Partly Cloudy
2:53 AM 66.9 °F - 64.9 °F 93% 30.11 in 9.0 mi ENE 3.5 mph - N/A   Clear
3:18 AM 66.2 °F - 64.4 °F 94% 30.14 in 8.0 mi Calm Calm - N/A   Mostly Cloudy
3:35 AM 66.2 °F - 66.2 °F 100% 30.15 in 8.0 mi ENE 4.6 mph - N/A   Overcast
3:53 AM 68.0 °F - 66.0 °F 93% 30.11 in 7.0 mi ENE 4.6 mph - N/A   Overcast
4:10 AM 69.8 °F - 68.0 °F 94% 30.15 in 8.0 mi ENE 5.8 mph - N/A   Overcast
4:29 AM 69.8 °F - 68.0 °F 94% 30.15 in 7.0 mi ENE 6.9 mph - N/A   Overcast
4:53 AM 69.1 °F - 68.0 °F 96% 30.12 in 7.0 mi East 4.6 mph - N/A   Overcast
5:31 AM 71.6 °F - 69.8 °F 94% 30.17 in 10.0 mi East 5.8 mph - N/A   Overcast
5:53 AM 71.1 °F - 69.1 °F 93% 30.14 in 9.0 mi ESE 5.8 mph - N/A   Overcast
6:53 AM 71.1 °F - 69.1 °F 93% 30.15 in 9.0 mi SE 6.9 mph - N/A   Overcast
7:53 AM 71.1 °F - 69.1 °F 93% 30.18 in 8.0 mi ESE 6.9 mph - N/A   Overcast
8:39 AM 73.4 °F - 69.8 °F 88% 30.22 in 10.0 mi ESE 6.9 mph - N/A   Overcast
8:53 AM 73.9 °F - 69.1 °F 85% 30.19 in 10.0 mi SSE 10.4 mph - N/A   Overcast
9:44 AM 75.2 °F - 69.8 °F 83% 30.23 in 10.0 mi SSE 9.2 mph - N/A   Overcast
9:53 AM 75.9 °F - 69.1 °F 79% 30.20 in 10.0 mi South 6.9 mph - N/A   Overcast
10:21 AM 77.0 °F - 69.8 °F 78% 30.23 in 10.0 mi South 5.8 mph - N/A   Mostly Cloudy
10:49 AM 78.8 °F - 69.8 °F 74% 30.23 in 10.0 mi SSE 6.9 mph - N/A   Scattered Clouds
10:53 AM 79.0 °F - 69.1 °F 72% 30.20 in 10.0 mi SSE 6.9 mph - N/A   Mostly Cloudy
11:03 AM 78.8 °F - 68.0 °F 69% 30.23 in 10.0 mi Variable 6.9 mph - N/A   Scattered Clouds
11:53 AM 82.0 °F 84.5 °F 66.9 °F 60% 30.18 in 10.0 mi Variable 6.9 mph - N/A   Scattered Clouds
12:53 PM 84.0 °F 86.5 °F 66.9 °F 56% 30.17 in 10.0 mi Variable 5.8 mph - N/A   Scattered Clouds
1:53 PM 82.9 °F 87.0 °F 70.0 °F 65% 30.16 in 10.0 mi ENE 11.5 mph - N/A   Scattered Clouds
2:53 PM 82.9 °F 86.5 °F 69.1 °F 63% 30.15 in 10.0 mi ENE 11.5 mph - N/A   Mostly Cloudy
3:53 PM 78.1 °F - 72.0 °F 81% 30.16 in 9.0 mi East 4.6 mph - 0.00 in Rain , Thunderstorm Light Rain
4:06 PM 75.2 °F - 71.6 °F 89% 30.19 in 1.5 mi East 10.4 mph - 0.11 in Rain , Thunderstorm Heavy Thunderstorms and Rain
4:16 PM 73.4 °F - 71.6 °F 94% 30.19 in 3.0 mi ESE 9.2 mph - 0.13 in Rain , Thunderstorm Light Thunderstorms and Rain
4:36 PM 73.4 °F - 71.6 °F 94% 30.19 in 10.0 mi NNE 4.6 mph - 0.13 in   Overcast
4:53 PM 73.9 °F - 71.1 °F 91% 30.16 in 10.0 mi Calm Calm - 0.13 in   Scattered Clouds
5:53 PM 75.9 °F - 72.0 °F 87% 30.14 in 10.0 mi Calm Calm - N/A   Clear
6:53 PM 75.9 °F - 73.0 °F 91% 30.16 in 10.0 mi Calm Calm - N/A   Partly Cloudy
7:53 PM 75.9 °F - 73.0 °F 91% 30.16 in 10.0 mi NE 3.5 mph - N/A   Partly Cloudy
8:53 PM 73.9 °F - 72.0 °F 93% 30.18 in 10.0 mi Calm Calm - N/A   Partly Cloudy
9:53 PM 75.0 °F - 71.1 °F 87% 30.19 in 10.0 mi ESE 8.1 mph - N/A   Scattered Clouds
10:53 PM 73.0 °F - 70.0 °F 90% 30.20 in 10.0 mi East 4.6 mph - N/A   Clear
11:53 PM 72.0 °F - 71.1 °F 97% 30.21 in 10.0 mi Calm Calm - N/A   Clear